Location: London
(51.5074°N, 0.1278°W)
Time: 22:24:01
(UTC+01:00)

DELFI C3 - Pass Details

Date: 03 October 2020
Orbit: 535 x 549 km, 97.4° (Epoch: 22 October)

Event Time Altitude Azimuth Distance (km) Brightness Sun altitude
Exits shadow 19:40:31 16° 110° (ESE) 1,461 ? -11.4°
Maximum altitude 19:42:41 26° 65° (ENE) 1,109 ? -11.7°
Drops below altitude 10° 19:45:59 10° 8° (N) 1,832 ? -12.2°
Sets 19:48:22 0° 356° (N) 2,733 ? -12.6°
